Location: Crescent
(42.8242°N, 73.7329°W)
Time: 14:37:20
(UTC+00:00)

Transit 2A Rocket - Pass Details

Date: 17 February 2026
Orbit: 583 x 900 km, 66.7° (Epoch: 14 March)

Event Time Altitude Azimuth Distance (km) Brightness Sun altitude
Rises 22:47:07 0° 258° (WSW) 3,505 11.8 -4.0°
Reaches altitude 10° 22:50:22 10° 276° (W) 2,576 9.3 -4.6°
Maximum altitude 22:54:38 20° 321° (NW) 1,972 7.5 -5.4°
Drops below altitude 10° 22:58:51 10° 6° (N) 2,545 7.5 -6.1°
Sets 23:02:04 0° 24° (NNE) 3,450 8.0 -6.7°
